Time,TemperatureF,DewpointF,PressureIn,WindDirection,WindDirectionDegrees,WindSpeedMPH,WindSpeedGustMPH,Humidity,HourlyPrecipIn,Conditions,Clouds,dailyrainin,SolarRadiationWatts/m^2,SoftwareType,DateUTC
2013-02-15 00:01:00,21.0,12.0,-100.00,SW,223,5.0,7.0,68,-99.99,,,0.00,0.000000,,2013-02-15 07:01:00,
2013-02-15 00:42:00,20.0,12.0,-100.00,WSW,250,4.0,9.0,70,-99.99,,,0.00,0.000000,,2013-02-15 07:42:00,
2013-02-15 00:52:00,20.0,12.0,-100.00,WSW,250,4.0,9.0,70,-99.99,,,0.00,0.000000,,2013-02-15 07:52:00,
2013-02-15 01:01:00,20.0,12.0,-100.00,WSW,250,4.0,9.0,70,-99.99,,,0.00,0.000000,,2013-02-15 08:01:00,
2013-02-15 01:42:00,15.0,9.0,-100.00,SW,235,2.0,8.0,76,-99.99,,,0.00,0.000000,,2013-02-15 08:42:00,
2013-02-15 01:53:00,15.0,9.0,-100.00,SW,235,2.0,8.0,76,-99.99,,,0.00,0.000000,,2013-02-15 08:53:00,
2013-02-15 02:01:00,15.0,9.0,-100.00,SW,235,2.0,8.0,76,-99.99,,,0.00,0.000000,,2013-02-15 09:01:00,
2013-02-15 02:42:00,15.0,10.0,-100.00,WSW,239,3.0,6.0,79,-99.99,,,0.00,0.000000,,2013-02-15 09:42:00,
2013-02-15 02:52:00,15.0,10.0,-100.00,WSW,239,3.0,6.0,79,-99.99,,,0.00,0.000000,,2013-02-15 09:52:00,
2013-02-15 03:01:00,15.0,10.0,-100.00,WSW,239,3.0,6.0,79,-99.99,,,0.00,0.000000,,2013-02-15 10:01:00,
2013-02-15 03:42:00,10.0,6.0,-100.00,SW,226,2.0,4.0,83,-99.99,,,-99.99,0.000000,,2013-02-15 10:42:00,
2013-02-15 03:52:00,10.0,6.0,-100.00,SW,226,2.0,4.0,83,-99.99,,,-99.99,0.000000,,2013-02-15 10:52:00,
2013-02-15 04:01:00,10.0,6.0,-100.00,SW,226,2.0,4.0,83,-99.99,,,-99.99,0.000000,,2013-02-15 11:01:00,
2013-02-15 04:42:00,10.0,6.0,-100.00,SSW,212,3.0,6.0,84,-99.99,,,0.00,0.000000,,2013-02-15 11:42:00,
2013-02-15 04:52:00,10.0,6.0,-100.00,SSW,212,3.0,6.0,84,-99.99,,,0.00,0.000000,,2013-02-15 11:52:00,
2013-02-15 05:01:00,10.0,6.0,-100.00,SSW,212,3.0,6.0,84,-99.99,,,0.00,0.000000,,2013-02-15 12:01:00,
2013-02-15 05:42:00,9.0,5.0,-100.00,West,259,2.0,8.0,84,-99.99,,,0.00,0.000000,,2013-02-15 12:42:00,
2013-02-15 05:52:00,9.0,5.0,-100.00,West,259,2.0,8.0,84,-99.99,,,0.00,0.000000,,2013-02-15 12:52:00,
2013-02-15 06:02:00,9.0,5.0,-100.00,West,259,2.0,8.0,84,-99.99,,,0.00,0.000000,,2013-02-15 13:02:00,
2013-02-15 06:42:00,12.0,8.0,-100.00,SSW,212,4.0,8.0,85,-99.99,,,0.00,0.000000,,2013-02-15 13:42:00,
2013-02-15 06:52:00,12.0,8.0,-100.00,SSW,212,4.0,8.0,85,-99.99,,,0.00,0.000000,,2013-02-15 13:52:00,
2013-02-15 07:01:00,12.0,8.0,-100.00,SSW,212,4.0,8.0,85,-99.99,,,0.00,0.000000,,2013-02-15 14:01:00,
2013-02-15 07:42:00,13.0,8.0,-100.00,SW,223,6.0,11.0,79,0.00,,,0.00,1.000000,,2013-02-15 14:42:00,
2013-02-15 07:52:00,13.0,8.0,-100.00,SW,223,6.0,11.0,79,0.00,,,0.00,1.000000,,2013-02-15 14:52:00,
2013-02-15 08:01:00,13.0,8.0,-100.00,SW,223,6.0,11.0,79,0.00,,,0.00,1.000000,,2013-02-15 15:01:00,
2013-02-15 08:42:00,20.0,12.0,-100.00,SSW,212,5.0,9.0,72,-99.99,,,0.00,85.000000,,2013-02-15 15:42:00,
2013-02-15 08:52:00,20.0,12.0,-100.00,SSW,212,5.0,9.0,72,-99.99,,,0.00,85.000000,,2013-02-15 15:52:00,
2013-02-15 09:01:00,20.0,12.0,-100.00,SSW,212,5.0,9.0,72,-99.99,,,0.00,85.000000,,2013-02-15 16:01:00,
2013-02-15 09:43:00,35.0,17.0,-100.00,SSW,204,5.0,9.0,47,-99.99,,,0.00,315.000000,,2013-02-15 16:43:00,
2013-02-15 09:52:00,35.0,17.0,-100.00,SSW,204,5.0,9.0,47,-99.99,,,0.00,315.000000,,2013-02-15 16:52:00,
2013-02-15 10:01:00,35.0,17.0,-100.00,SSW,204,5.0,9.0,47,-99.99,,,0.00,315.000000,,2013-02-15 17:01:00,
2013-02-15 10:11:00,35.0,17.0,-100.00,SSW,204,5.0,9.0,47,-99.99,,,0.00,315.000000,,2013-02-15 17:11:00,
2013-02-15 10:32:00,46.0,13.0,-100.00,SE,126,7.0,11.0,26,0.00,,,0.00,502.000000,,2013-02-15 17:32:00,
2013-02-15 10:42:00,46.0,13.0,-100.00,SE,126,7.0,11.0,26,0.00,,,0.00,502.000000,,2013-02-15 17:42:00,
2013-02-15 10:52:00,46.0,13.0,-100.00,SE,126,7.0,11.0,26,0.00,,,0.00,502.000000,,2013-02-15 17:52:00,
2013-02-15 11:01:00,46.0,13.0,-100.00,SE,126,7.0,11.0,26,0.00,,,0.00,502.000000,,2013-02-15 18:01:00,
2013-02-15 11:11:00,46.0,13.0,-100.00,SE,126,7.0,11.0,26,0.00,,,0.00,502.000000,,2013-02-15 18:11:00,
2013-02-15 11:42:00,48.0,-2.0,-100.00,NE,48,14.0,20.0,12,0.00,,,-99.99,655.000000,,2013-02-15 18:42:00,
2013-02-15 11:52:00,48.0,-2.0,-100.00,NE,48,14.0,20.0,12,0.00,,,-99.99,655.000000,,2013-02-15 18:52:00,
2013-02-15 12:01:00,48.0,-2.0,-100.00,NE,48,14.0,20.0,12,0.00,,,-99.99,655.000000,,2013-02-15 19:01:00,
2013-02-15 12:42:00,51.0,2.0,-100.00,NE,42,10.0,21.0,13,0.00,,,0.00,746.000000,,2013-02-15 19:42:00,
2013-02-15 12:52:00,51.0,2.0,-100.00,NE,42,10.0,21.0,13,0.00,,,0.00,746.000000,,2013-02-15 19:52:00,
2013-02-15 13:01:00,51.0,2.0,-100.00,NE,42,10.0,21.0,13,0.00,,,0.00,746.000000,,2013-02-15 20:01:00,
2013-02-15 13:11:00,51.0,2.0,-100.00,NE,42,10.0,21.0,13,0.00,,,0.00,746.000000,,2013-02-15 20:11:00,
2013-02-15 13:42:00,51.0,2.0,-100.00,NE,46,10.0,20.0,13,0.00,,,-99.99,772.000000,,2013-02-15 20:42:00,
2013-02-15 13:52:00,51.0,2.0,-100.00,NE,46,10.0,20.0,13,0.00,,,-99.99,772.000000,,2013-02-15 20:52:00,
2013-02-15 14:01:00,51.0,2.0,-100.00,NE,46,10.0,20.0,13,0.00,,,-99.99,772.000000,,2013-02-15 21:01:00,
2013-02-15 14:11:00,51.0,2.0,-100.00,NE,46,10.0,20.0,13,0.00,,,-99.99,772.000000,,2013-02-15 21:11:00,
2013-02-15 14:42:00,50.0,-1.0,-100.00,NE,43,12.0,21.0,12,0.00,,,0.00,730.000000,,2013-02-15 21:42:00,
2013-02-15 14:52:00,50.0,-1.0,-100.00,NE,43,12.0,21.0,12,0.00,,,0.00,730.000000,,2013-02-15 21:52:00,
2013-02-15 15:02:00,50.0,-1.0,-100.00,NE,43,12.0,21.0,12,0.00,,,0.00,730.000000,,2013-02-15 22:02:00,
2013-02-15 15:11:00,50.0,-1.0,-100.00,NE,43,12.0,21.0,12,0.00,,,0.00,730.000000,,2013-02-15 22:11:00,
2013-02-15 15:42:00,49.0,-1.0,-100.00,NE,48,12.0,23.0,12,0.00,,,0.00,626.000000,,2013-02-15 22:42:00,
2013-02-15 15:52:00,49.0,-1.0,-100.00,NE,48,12.0,23.0,12,0.00,,,0.00,626.000000,,2013-02-15 22:52:00,
2013-02-15 16:02:00,49.0,-1.0,-100.00,NE,48,12.0,23.0,12,0.00,,,0.00,626.000000,,2013-02-15 23:02:00,
2013-02-15 16:11:00,49.0,-1.0,-100.00,NE,48,12.0,23.0,12,0.00,,,0.00,626.000000,,2013-02-15 23:11:00,
2013-02-15 16:32:00,48.0,1.0,-100.00,NE,52,12.0,20.0,14,0.00,,,0.00,465.000000,,2013-02-15 23:32:00,
2013-02-15 16:42:00,48.0,1.0,-100.00,NE,52,12.0,20.0,14,0.00,,,0.00,465.000000,,2013-02-15 23:42:00,
2013-02-15 16:52:00,48.0,1.0,-100.00,NE,52,12.0,20.0,14,0.00,,,0.00,465.000000,,2013-02-15 23:52:00,
2013-02-15 17:02:00,48.0,1.0,-100.00,NE,52,12.0,20.0,14,0.00,,,0.00,465.000000,,2013-02-16 00:02:00,
2013-02-15 17:11:00,48.0,1.0,-100.00,NE,52,12.0,20.0,14,0.00,,,0.00,465.000000,,2013-02-16 00:11:00,
2013-02-15 17:42:00,46.0,1.0,-100.00,ENE,60,8.0,19.0,15,0.00,,,0.00,268.000000,,2013-02-16 00:42:00,
2013-02-15 17:52:00,46.0,1.0,-100.00,ENE,60,8.0,19.0,15,0.00,,,0.00,268.000000,,2013-02-16 00:52:00,
2013-02-15 18:02:00,46.0,1.0,-100.00,ENE,60,8.0,19.0,15,0.00,,,0.00,268.000000,,2013-02-16 01:02:00,
2013-02-15 18:11:00,46.0,1.0,-100.00,ENE,60,8.0,19.0,15,0.00,,,0.00,268.000000,,2013-02-16 01:11:00,
2013-02-15 18:42:00,31.0,11.0,-100.00,NNW,333,6.0,10.0,43,0.00,,,0.00,61.000000,,2013-02-16 01:42:00,
2013-02-15 18:52:00,31.0,11.0,-100.00,NNW,333,6.0,10.0,43,0.00,,,0.00,61.000000,,2013-02-16 01:52:00,
2013-02-15 19:01:00,31.0,11.0,-100.00,NNW,333,6.0,10.0,43,0.00,,,0.00,61.000000,,2013-02-16 02:01:00,
2013-02-15 19:42:00,28.0,7.0,-100.00,North,1,3.0,7.0,41,-99.99,,,0.00,0.000000,,2013-02-16 02:42:00,
2013-02-15 19:52:00,28.0,7.0,-100.00,North,1,3.0,7.0,41,-99.99,,,0.00,0.000000,,2013-02-16 02:52:00,
2013-02-15 20:01:00,28.0,7.0,-100.00,North,1,3.0,7.0,41,-99.99,,,0.00,0.000000,,2013-02-16 03:01:00,
2013-02-15 20:42:00,30.0,4.0,-100.00,ENE,60,8.0,12.0,33,-99.99,,,0.00,0.000000,,2013-02-16 03:42:00,
2013-02-15 20:52:00,30.0,4.0,-100.00,ENE,60,8.0,12.0,33,-99.99,,,0.00,0.000000,,2013-02-16 03:52:00,
2013-02-15 21:01:00,30.0,4.0,-100.00,ENE,60,8.0,12.0,33,-99.99,,,0.00,0.000000,,2013-02-16 04:01:00,
2013-02-15 21:11:00,30.0,4.0,-100.00,ENE,60,8.0,12.0,33,-99.99,,,0.00,0.000000,,2013-02-16 04:11:00,
2013-02-15 21:42:00,23.0,6.0,-100.00,SW,217,5.0,13.0,48,0.00,,,0.00,0.000000,,2013-02-16 04:42:00,
2013-02-15 21:52:00,23.0,6.0,-100.00,SW,217,5.0,13.0,48,0.00,,,0.00,0.000000,,2013-02-16 04:52:00,
2013-02-15 22:01:00,23.0,6.0,-100.00,SW,217,5.0,13.0,48,0.00,,,0.00,0.000000,,2013-02-16 05:01:00,
2013-02-15 22:42:00,17.0,7.0,-100.00,SE,143,1.0,4.0,63,-99.99,,,-99.99,0.000000,,2013-02-16 05:42:00,
2013-02-15 22:52:00,17.0,7.0,-100.00,SE,143,1.0,4.0,63,-99.99,,,-99.99,0.000000,,2013-02-16 05:52:00,
2013-02-15 23:01:00,17.0,7.0,-100.00,SE,143,1.0,4.0,63,-99.99,,,-99.99,0.000000,,2013-02-16 06:01:00,
2013-02-15 23:42:00,15.0,7.0,-100.00,SSW,213,2.0,4.0,70,-99.99,,,-99.99,0.000000,,2013-02-16 06:42:00,
2013-02-15 23:52:00,15.0,7.0,-100.00,SSW,213,2.0,4.0,70,-99.99,,,-99.99,0.000000,,2013-02-16 06:52:00,